Regional Weather Roundup
Issued by NWS

Home | Current Version | Previous Version | Graphics & Text | Print | Product List | Glossary On
Versions: 1 2 3 4 5 6 7 8 9 10 11 12 13 14 15 16 17 18 19 20 21 22 23 24 25 26 27 28 29 30 31 32 33 34 35 36 37 38 39 40 41 42 43 44 45 46 47 48 49 50
538
ASUS43 KDMX 240101
RWRIA

WEATHER ROUNDUP FOR IOWA
NATIONAL WEATHER SERVICE DES MOINES IA
800 PM CDT SUN APR 23 2017

NOTE: "FAIR" INDICATES FEW OR NO CLOUDS BELOW 12,000 FEET WITH NO
SIGNIFICANT WEATHER AND/OR OBSTRUCTIONS TO VISIBILITY.

* - THESE STATIONS ARE NOT NWS STATIONS...THUS NOT UNDER NWS
QUALITY CONTROL.  THEY ALSO DO NOT REPORT WEATHER SUCH
AS PRECIPITATION OR FOG.

IAZ001>003-012>014-020>022-031>034-043>046-240200-
   NORTHWEST IOWA

CITY           SKY/WX    TMP DP  RH WIND       PRES   REMARKS
CARROLL *      PTCLDY    64  28  25 S13G18    29.91F
CHEROKEE *     CLOUDY    63  30  28 S10       29.87F
DENISON *      PTCLDY    64  30  27 S10G16    29.92S
LE MARS *      CLOUDY    66  28  24 S15G21    29.84F
ORANGE CITY *  CLOUDY    64  30  27 S13       29.85S
SHELDON *      CLOUDY    64  27  24 S16       29.83S
SIOUX CITY     CLOUDY    67  27  22 S15       29.85F
SPENCER        CLOUDY    63  30  28 MISG      29.87F
STORM LAKE *   CLEAR     63  28  27 S13       29.89S
$$

IAZ055>058-069>071-079>083-090>094-240200-
   SOUTHWEST IOWA

CITY           SKY/WX    TMP DP  RH WIND       PRES   REMARKS
ATLANTIC *     PTCLDY    64  32  29 S9        29.94S
AUDUBON *      CLEAR     63  27  25 S7        29.94F
CLARINDA *     CLEAR     63  32  31 CALM      29.98R
COUNCIL BLFS * CLEAR     64  32  29 S7        29.92S
CRESTON *      CLOUDY    61  34  36 S8        29.98F
HARLAN  *      PTCLDY    64  30  27 S13       29.95F
LAMONI         CLEAR     64  32  30 S6        29.98F
RED OAK *      CLEAR     64  30  27 S9        29.95S
SHENANDOAH *   CLEAR     64  32  29 S10       29.95R
$$

IAZ047>049-059>061-072>074-084-240200-
   CENTRAL IOWA

CITY           SKY/WX    TMP DP  RH WIND       PRES   REMARKS
AMES           MOCLDY    63  35  35 S8        29.95S
ANKENY *       CLOUDY    66  32  28 S7        29.97S
BOONE *        PTCLDY    64  30  27 S8        29.94S
CHARITON *     CLOUDY    61  37  41 S8        29.98F
DES MOINES     CLOUDY    64  34  32 S7        29.97F
GRINNELL*      PTCLDY    62  30  29 S6        29.99F
KNOXVILLE *    CLOUDY    64  34  32 SE5       29.97F
MARSHALLTOWN   PTCLDY    62  35  36 S9        29.96S
NEWTON *       PTCLDY    61  32  33 S6        29.97S
PELLA *        PTCLDY    65  29  26 S5        29.99F
PERRY *          N/A     65  25  21 S12       29.95S
$$

IAZ004>006-015-016-023>025-035-036-240200-
   NORTH CENTRAL IOWA

CITY           SKY/WX    TMP DP  RH WIND       PRES   REMARKS
ALGONA *       CLOUDY    64  28  25 S13       29.91S
CLARION *      CLOUDY    64  30  27 S13       29.93S
ESTHERVILLE    CLEAR     61  32  33 S12       29.87F
FORT DODGE *   CLOUDY    64  30  27 S9        29.93S
MASON CITY     CLOUDY    63  29  27 S9        29.94R
FOREST CITY *    N/A     63  30  29 S8        29.92S
WEBSTER CITY * PTCLDY    64  30  27 S10       29.91F
IOWA FALLS *     N/A     65  32  28 S9        29.96S
$$

IAZ007>011-017>019-026>030-037>042-050>054-066-240200-
   NORTHEAST IOWA

CITY           SKY/WX    TMP DP  RH WIND       PRES   REMARKS
CEDAR RAPIDS   CLEAR     62  32  32 S5        29.98F
CHARLES CITY * CLOUDY    64  30  27 S9        29.95S
DECORAH *      MOCLDY    64  32  29 S5        29.94F
DUBUQUE        CLEAR     58  37  45 S7        30.00F
MONTICELLO *   CLEAR     63  32  31 S7        29.99S
OELWEIN *      PTCLDY    63  34  34 S10       29.97S
WATERLOO       PTCLDY    65  29  25 S9        29.96S
$$

IAZ064-065-067-068-078-240200-
   EAST CENTRAL IOWA

CITY           SKY/WX    TMP DP  RH WIND       PRES   REMARKS
DAVENPORT      CLEAR     63  32  31 S5        30.02R
IOWA CITY      CLEAR     67  34  29 S5        30.01F
MUSCATINE *    CLEAR     66  27  22 SE6       30.01S
QUAD CITIES    CLEAR     61  40  45 SE5       30.01R
$$

IAZ062-063-075>077-085>089-095>099-240200-
   SOUTHEAST IOWA

CITY           SKY/WX    TMP DP  RH WIND       PRES   REMARKS
BURLINGTON     CLEAR     62  33  33 CALM      30.01S
FAIRFIELD *    CLEAR     63  30  29 S5        30.00S
FORT MADISON * CLEAR     63  28  27 CALM      30.02F
KEOKUK *       CLEAR     63  36  36 CALM      30.01S
OSKALOOSA *      N/A     60  34  37 S8        30.00S
OTTUMWA        PTCLDY    63  34  33 SE6       29.99F
WASHINGTON *   CLEAR     64  30  27 S5        30.01S
$$

ABBREVIATIONS USED IN REMARKS
   TC - TEMPERATURES IN CELSIUS
  WCI - WIND CHILL INDEX
   HX - HEAT INDEX
  VSB - VISIBILITY
$$





USA.gov is the U.S. government's official web portal to all federal, state and local government web resources and services.